Location: Stockholm
(59.3330°N, 18.0500°E)
Time: 01:09:32
(UTC+01:00)

FENGYUN 1C DEB - Visible Passes

Search period start: 07 December 2023 00:00
Search period end: 17 December 2023 00:00
Orbit: 842 x 915 km, 98.9° (Epoch: 02 December)

Date Brightness Start Highest point End Pass type
(mag) Time Alt. Az. Time Alt. Az. Time Alt. Az.
07 Dec ? 17:15:30 12° NNE 17:15:30 12° NNE 17:17:15 10° N visible
07 Dec ? 18:58:06 18° N 18:58:06 18° N 18:59:44 10° N visible
07 Dec ? 20:40:42 14° NNW 20:40:42 14° NNW 20:41:25 10° NNW visible
08 Dec ? 17:11:51 12° NNE 17:11:51 12° NNE 17:13:32 10° N visible
08 Dec ? 18:54:27 18° N 18:54:27 18° N 18:56:05 10° N visible
08 Dec ? 20:37:03 14° NNW 20:37:03 14° NNW 20:37:48 10° NNW visible
09 Dec ? 17:08:12 12° NNE 17:08:12 12° NNE 17:09:50 10° N visible
09 Dec ? 18:50:48 18° N 18:50:48 18° N 18:52:26 10° N visible
09 Dec ? 20:33:23 14° NNW 20:33:23 14° NNW 20:34:10 10° NNW visible
10 Dec ? 17:04:32 11° NNE 17:04:32 11° NNE 17:06:06 10° N visible
10 Dec ? 18:47:07 18° N 18:47:07 18° N 18:48:46 10° N visible
10 Dec ? 20:29:43 14° NNW 20:29:43 14° NNW 20:30:31 10° NNW visible
11 Dec ? 17:00:51 11° NNE 17:00:57 11° NNE 17:02:20 10° N visible
11 Dec ? 18:43:27 17° N 18:43:27 17° N 18:45:06 10° N visible
11 Dec ? 20:26:03 15° NNW 20:26:03 15° NNW 20:26:52 10° NNW visible
12 Dec ? 16:57:10 11° NNE 16:57:22 11° NNE 16:58:34 10° N visible
12 Dec ? 18:39:46 17° N 18:39:46 17° N 18:41:25 10° N visible
12 Dec ? 20:22:21 15° NNW 20:22:21 15° NNW 20:23:13 10° NNW visible
13 Dec ? 16:53:28 10° NNE 16:53:47 10° NNE 16:54:44 10° NNE visible
13 Dec ? 18:36:04 17° N 18:36:04 17° N 18:37:44 10° N visible
13 Dec ? 20:18:39 15° NNW 20:18:39 15° NNW 20:19:33 10° NNW visible
14 Dec ? 16:49:46 10° NNE 16:50:12 10° NNE 16:50:49 10° NNE visible
14 Dec ? 18:32:21 17° N 18:32:21 17° N 18:34:02 10° N visible
14 Dec ? 20:14:57 15° NNW 20:14:57 15° NNW 20:15:53 10° NNW visible
15 Dec ? 18:28:38 17° N 18:28:38 17° N 18:30:20 10° N visible
15 Dec ? 20:11:14 15° NNW 20:11:14 15° NNW 20:12:11 10° NNW visible
16 Dec ? 18:24:54 17° N 18:24:54 17° N 18:26:38 10° N visible
16 Dec ? 20:07:29 16° NNW 20:07:29 16° NNW 20:08:30 10° NNW visible
